This is the latest recevied weather packets stored in our database for station/object KD8ZLZ. If no packets are shown the sender has not sent any weather packets the latest 10 day(s).
| Time | Temp. | Humidity | Pressure | Rain* | Wind** | Luminosity | Snow |
|---|---|---|---|---|---|---|---|
| 1777548029 | 5.56° C | 86% | 1014.9 hPa | 0 mm | - | - | - |
| 1777547130 | 5.56° C | 86% | 1014.6 hPa | 0 mm | - | - | - |
| 1777545329 | 5° C | 88% | 1014.6 hPa | 0 mm | - | - | - |
| 1777541430 | 5° C | 89% | 1014.2 hPa | 0 mm | - | - | - |
| 1777539930 | 5° C | 89% | 1014.2 hPa | 0 mm | - | - | - |
| 1777536950 | 5.56° C | 88% | 1013.9 hPa | 0 mm | - | - | - |
| 1777527329 | 6.11° C | 88% | 1014 hPa | - | - | - | - |
| 1777525230 | 6.11° C | 87% | 1014 hPa | - | - | - | - |
| 1777524329 | 6.67° C | 87% | 1014 hPa | - | - | - | - |
| 1777523431 | 6.67° C | 87% | 1014 hPa | - | - | - | - |
| 1777520430 | 7.22° C | 91% | 1014 hPa | - | - | - | - |
| 1777517729 | 7.22° C | 94% | 1013.6 hPa | - | - | - | - |
| 1777516229 | 7.22° C | 88% | 1013.3 hPa | - | - | - | - |
| 1777515929 | 7.78° C | 91% | 1013.3 hPa | - | - | - | - |
| 1777515029 | 8.33° C | 91% | 1013.4 hPa | - | - | - | - |
| 1777512630 | 8.89° C | 93% | 1012.3 hPa | - | - | - | - |
| 1777512029 | 8.89° C | 93% | 1012.3 hPa | - | - | - | - |
| 1777511729 | 8.89° C | 93% | 1012.3 hPa | - | - | - | - |
| 1777510830 | 8.89° C | 93% | 1012 hPa | - | - | - | - |
| 1777510229 | 8.89° C | 92% | 1012 hPa | - | - | - | - |
| 1777509929 | 8.89° C | 91% | 1012 hPa | - | - | - | - |
| 1777507849 | 8.89° C | 91% | 1011.7 hPa | - | - | - | - |
| 1777504249 | 10.56° C | 82% | 1011.8 hPa | 0 mm | - | - | - |
| 1777502730 | 11.11° C | 79% | 1011.8 hPa | 0 mm | - | - | - |
| 1777501570 | 11.11° C | 77% | 1011.8 hPa | 0 mm | - | - | - |
* Rain latest hour (hover to see other rain measurements)
** Current wind speed in m/s (hover to see current wind gust speed)